• In Belgium
  • List of Countries
  • For 7 days
  • Water Temperature
  • Satellite Maps
  • Weather Map
  • Weather Widgets
  • user-avatar
    Login

    Hourly Weather Abovyan

    Today, 21 November, Tuesday

    Time Temperature Precipitation Wind Pressure Humidity
    00:00 +8°C° 0 mm 2 mps 667 mmHg 66%
    01:00 +8°C° 0 mm 2 mps 667 mmHg 67%
    02:00 +7°C° 0 mm 2 mps 667 mmHg 68%
    03:00 +8°C° 0 mm 2 mps 666 mmHg 69%
    04:00 +8°C° 0 mm 2 mps 666 mmHg 69%
    05:00 +8°C° 0 mm 2 mps 666 mmHg 70%
    06:00 +8°C° 0 mm 2 mps 666 mmHg 70%
    07:00 +8°C° 0.2 mm 3 mps 666 mmHg 67%
    08:00 +9°C° 0.2 mm 3 mps 666 mmHg 65%
    09:00 +10°C° 0 mm 3 mps 666 mmHg 62%
    10:00 +11°C° 0.2 mm 3 mps 665 mmHg 59%
    11:00 +12°C° 0.2 mm 4 mps 665 mmHg 57%
    12:00 +13°C° 0.2 mm 4 mps 665 mmHg 55%
    13:00 +13°C° 0 mm 4 mps 665 mmHg 56%
    14:00 +13°C° 0 mm 4 mps 664 mmHg 56%
    15:00 +13°C° 0 mm 5 mps 664 mmHg 57%
    16:00 +12°C° 0 mm 4 mps 664 mmHg 63%
    17:00 +10°C° 0 mm 3 mps 663 mmHg 68%
    18:00 +9°C° 0 mm 3 mps 663 mmHg 74%
    19:00 +9°C° 0 mm 3 mps 663 mmHg 75%
    20:00 +9°C° 0 mm 3 mps 662 mmHg 76%
    21:00 +9°C° 0 mm 3 mps 662 mmHg 77%
    22:00 +9°C° 0 mm 3 mps 662 mmHg 78%
    23:00 +8°C° 0 mm 3 mps 662 mmHg 78%

    Tomorrow, 22 November, Wednesday

    Time Temperature Precipitation Wind Pressure Humidity
    00:00 +8°C° 0 mm 3 mps 662 mmHg 79%
    01:00 +8°C° 0.6 mm 3 mps 662 mmHg 80%
    02:00 +8°C° 0.6 mm 2 mps 662 mmHg 80%
    03:00 +8°C° 0.6 mm 2 mps 663 mmHg 81%
    04:00 +7°C° 1.3 mm 2 mps 662 mmHg 82%
    05:00 +7°C° 1.3 mm 3 mps 662 mmHg 83%
    06:00 +5°C° 1.3 mm 3 mps 662 mmHg 84%
    07:00 +5°C° 1.1 mm 3 mps 662 mmHg 83%
    08:00 +6°C° 1.1 mm 2 mps 662 mmHg 82%
    09:00 +6°C° 1.1 mm 2 mps 662 mmHg 82%
    10:00 +6°C° 1 mm 2 mps 662 mmHg 81%
    11:00 +6°C° 1 mm 2 mps 662 mmHg 80%
    12:00 +5°C° 1 mm 3 mps 662 mmHg 79%
    13:00 +4°C° 0.5 mm 3 mps 662 mmHg 78%
    14:00 +5°C° 0.5 mm 2 mps 663 mmHg 76%
    15:00 +5°C° 0.5 mm 2 mps 663 mmHg 75%
    16:00 +5°C° 0.3 mm 2 mps 663 mmHg 75%
    17:00 +4°C° 0.3 mm 2 mps 664 mmHg 76%
    18:00 +3°C° 0.3 mm 2 mps 664 mmHg 77%
    19:00 +3°C° 0.2 mm 2 mps 665 mmHg 77%
    20:00 +3°C° 0.2 mm 2 mps 665 mmHg 77%
    21:00 +2°C° 0.2 mm 2 mps 665 mmHg 78%
    22:00 +2°C° 0.1 mm 2 mps 665 mmHg 78%
    23:00 +1°C° 0.1 mm 2 mps 666 mmHg 77%

    Day after tomorrow, 23 November, Thursday

    Time Temperature Precipitation Wind Pressure Humidity
    00:00 +2°C° 0.1 mm 1 mps 666 mmHg 77%
    01:00 +1°C° 0 mm 1 mps 666 mmHg 77%
    02:00 +1°C° 0 mm 1 mps 666 mmHg 76%
    03:00 0°C° 0 mm 1 mps 666 mmHg 75%
    04:00 -1°C° 0 mm 1 mps 666 mmHg 74%
    05:00 -1°C° 0 mm 1 mps 666 mmHg 73%
    06:00 -2°C° 0 mm 1 mps 666 mmHg 72%
    07:00 -3°C° 0.1 mm 2 mps 667 mmHg 71%
    08:00 -2°C° 0.1 mm 2 mps 667 mmHg 70%
    09:00 -1°C° 0.1 mm 2 mps 667 mmHg 69%
    10:00 -1°C° 0.1 mm 2 mps 667 mmHg 66%
    11:00 0°C° 0.1 mm 3 mps 667 mmHg 64%
    12:00 +1°C° 0.1 mm 3 mps 667 mmHg 62%
    13:00 +1°C° 0.1 mm 3 mps 667 mmHg 62%
    14:00 +1°C° 0.1 mm 3 mps 667 mmHg 62%
    15:00 +1°C° 0.1 mm 3 mps 667 mmHg 61%
    16:00 +1°C° 0.1 mm 2 mps 667 mmHg 64%
    17:00 -1°C° 0.1 mm 2 mps 667 mmHg 66%
    18:00 -1°C° 0.1 mm 2 mps 668 mmHg 69%
    19:00 +1°C° 0.1 mm 1 mps 668 mmHg 70%
    20:00 +1°C° 0.1 mm 1 mps 668 mmHg 71%
    21:00 +1°C° 0.1 mm 1 mps 669 mmHg 72%
    22:00 0°C° 0.2 mm 1 mps 669 mmHg 73%
    23:00 0°C° 0.2 mm 1 mps 669 mmHg 74%

    24 November, Friday

    Time Temperature Precipitation Wind Pressure Humidity
    00:00 0°C° 0.2 mm 1 mps 669 mmHg 74%
    01:00 0°C° 0.3 mm 1 mps 669 mmHg 75%
    02:00 0°C° 0.3 mm 1 mps 669 mmHg 76%
    03:00 -1°C° 0.3 mm 1 mps 669 mmHg 77%
    04:00 -1°C° 0.2 mm 1 mps 669 mmHg 77%
    05:00 -2°C° 0.2 mm 1 mps 669 mmHg 77%
    06:00 -2°C° 0.2 mm 1 mps 669 mmHg 77%
    07:00 -1°C° 0.1 mm 1 mps 670 mmHg 75%
    08:00 -1°C° 0.1 mm 1 mps 670 mmHg 73%
    09:00 0°C° 0.1 mm 1 mps 670 mmHg 71%
    10:00 0°C° 0.1 mm 1 mps 670 mmHg 68%
    11:00 +1°C° 0.1 mm 1 mps 670 mmHg 66%
    12:00 -1°C° 0.1 mm 2 mps 670 mmHg 63%
    13:00 -1°C° 0 mm 2 mps 670 mmHg 63%
    14:00 +1°C° 0 mm 1 mps 670 mmHg 63%
    15:00 +1°C° 0 mm 1 mps 669 mmHg 63%
    16:00 0°C° 0 mm 1 mps 670 mmHg 65%
    17:00 -1°C° 0 mm 1 mps 670 mmHg 66%
    18:00 -2°C° 0 mm 1 mps 670 mmHg 68%
    19:00 -2°C° 0 mm 1 mps 671 mmHg 67%
    20:00 -2°C° 0 mm 1 mps 671 mmHg 67%
    21:00 -2°C° 0 mm 1 mps 671 mmHg 67%
    22:00 -3°C° 0.1 mm 1 mps 672 mmHg 67%
    23:00 -3°C° 0.1 mm 1 mps 672 mmHg 67%

    25 November, Saturday

    Time Temperature Precipitation Wind Pressure Humidity
    00:00 -3°C° 0.1 mm 1 mps 672 mmHg 67%
    01:00 -3°C° 0.1 mm 1 mps 672 mmHg 67%
    02:00 -4°C° 0.1 mm 1 mps 673 mmHg 67%
    03:00 -4°C° 0.1 mm 1 mps 673 mmHg 67%
    04:00 -4°C° 0.1 mm 1 mps 673 mmHg 68%
    05:00 -4°C° 0.1 mm 1 mps 674 mmHg 69%
    06:00 -6°C° 0.1 mm 1 mps 674 mmHg 70%
    07:00 -6°C° 0.1 mm 2 mps 675 mmHg 69%
    08:00 -5°C° 0.1 mm 2 mps 675 mmHg 68%
    09:00 -5°C° 0.1 mm 2 mps 676 mmHg 67%
    10:00 -4°C° 0.1 mm 2 mps 676 mmHg 65%
    11:00 -3°C° 0.1 mm 2 mps 676 mmHg 63%
    12:00 -2°C° 0.1 mm 2 mps 676 mmHg 61%
    13:00 -2°C° 0 mm 2 mps 676 mmHg 61%
    14:00 -2°C° 0 mm 2 mps 676 mmHg 61%
    15:00 -2°C° 0 mm 2 mps 676 mmHg 60%
    16:00 -4°C° 0 mm 2 mps 677 mmHg 62%
    17:00 -5°C° 0 mm 2 mps 677 mmHg 63%
    18:00 -6°C° 0 mm 2 mps 677 mmHg 65%
    19:00 -7°C° 0 mm 2 mps 678 mmHg 65%
    20:00 -7°C° 0 mm 2 mps 678 mmHg 64%
    21:00 -7°C° 0 mm 2 mps 678 mmHg 64%
    22:00 -7°C° 0 mm 2 mps 678 mmHg 63%
    23:00 -7°C° 0 mm 2 mps 678 mmHg 63%

    26 November, Sunday

    Time Temperature Precipitation Wind Pressure Humidity
    00:00 -7°C° 0 mm 1 mps 678 mmHg 62%
    01:00 -7°C° 0 mm 1 mps 678 mmHg 61%
    02:00 -7°C° 0 mm 1 mps 678 mmHg 61%
    03:00 -7°C° 0 mm 1 mps 678 mmHg 60%
    04:00 -7°C° 0 mm 1 mps 678 mmHg 60%
    05:00 -7°C° 0 mm 1 mps 677 mmHg 60%
    06:00 -7°C° 0 mm 1 mps 677 mmHg 59%
    07:00 -6°C° 0 mm 1 mps 677 mmHg 58%
    08:00 -3°C° 0 mm 1 mps 678 mmHg 57%
    09:00 -2°C° 0 mm 1 mps 678 mmHg 55%
    10:00 -1°C° 0 mm 1 mps 677 mmHg 53%
    11:00 0°C° 0 mm 1 mps 677 mmHg 51%
    12:00 +2°C° 0 mm 1 mps 676 mmHg 49%
    13:00 +2°C° 0 mm 1 mps 676 mmHg 50%
    14:00 +2°C° 0 mm 1 mps 676 mmHg 50%
    15:00 +2°C° 0 mm 1 mps 675 mmHg 51%
    16:00 0°C° 0 mm 1 mps 675 mmHg 51%
    17:00 -1°C° 0 mm 1 mps 675 mmHg 50%
    18:00 -4°C° 0 mm 2 mps 676 mmHg 50%
    19:00 -4°C° 0 mm 2 mps 676 mmHg 50%
    20:00 -5°C° 0 mm 2 mps 676 mmHg 50%
    21:00 -5°C° 0 mm 2 mps 676 mmHg 49%
    22:00 -5°C° 0 mm 2 mps 676 mmHg 49%
    23:00 -5°C° 0 mm 2 mps 675 mmHg 49%
    Show more